Newport, AR

12:48 PM CDT on August 18, 2017 (GMT -0500)
Newport

Weather History for KM19 - September, 2013

Change the Weather History Date:

Friday, September 13, 2013

  Actual Average (KBVX) Record (KBVX)
Temperature  
Mean Temperature 67 °F -  
Max Temperature 75 °F 86 °F 101 °F (1980)
Min Temperature 59 °F 62 °F 43 °F (1955)
Cooling Degree Days 2    
Growing Degree Days 17 (Base 50)    
Moisture  
Dew Point 60 °F    
Average Humidity 76    
Maximum Humidity 100    
Minimum Humidity 51    
Precipitation  
Precipitation 0.00 in - - ()
Sea Level Pressure  
Sea Level Pressure 30.03 in    
Wind  
Wind Speed 8 mph (NNE)    
Max Wind Speed 13 mph    
Max Gust Speed -    
Visibility 10 miles    
Events      
Averages and records for this station are not official NWS values.
T = Trace of Precipitation, MM = Missing Value Source: NWS Daily Summary

Daily Weather History Graph

Daily Weather History Graph

Search for Another Location

Airport or City:

Trip Planner

Search our weather history database for the weather conditions in past years. The results will help you decide how hot, cold, wet, or windy it might be!

Date:

Astronomy

Sep. 13, 2013 Rise Set
Actual Time 6:46 AM CDT 7:14 PM CDT
Civil Twilight 6:20 AM CDT 7:39 PM CDT
Nautical Twilight 5:50 AM CDT 8:09 PM CDT
Astronomical Twilight 5:19 AM CDT 8:40 PM CDT
Moon 2:55 PM CDT (9/13) 12:24 AM CDT (9/13)
Length of Visible Light 13h 19m
Length of Day
12h 28m
First Quarter, 61% of the Moon is Illuminated
Sep 13
First Quarter
Sep 19
Full
Sep 26
Last Quarter
Oct 4
New
Oct 11
First Quarter

Hourly Weather History & Observations

Time (CDT) Temp. Dew Point Humidity Pressure Visibility Wind Dir Wind Speed Gust Speed Precip Events Conditions
12:56 AM 72.0 °F 72.0 °F 100% 30.01 in 8.0 mi NW 3.5 mph - N/A   Overcast
1:56 AM 72.0 °F 72.0 °F 100% 30.00 in 7.0 mi North 5.8 mph - N/A   Overcast
2:56 AM 72.0 °F 72.0 °F 100% 30.01 in 9.0 mi North 8.1 mph - N/A   Overcast
3:56 AM 70.0 °F 63.9 °F 81% 30.01 in 10.0 mi NNE 11.5 mph - N/A   Overcast
4:56 AM 66.9 °F 61.9 °F 84% 30.02 in 10.0 mi NNE 10.4 mph - N/A   Clear
5:56 AM 64.9 °F 61.9 °F 90% 30.03 in 10.0 mi NNE 8.1 mph - N/A   Clear
6:56 AM 63.9 °F 59.9 °F 87% 30.04 in 10.0 mi NNE 9.2 mph - N/A   Clear
7:56 AM 63.9 °F 59.0 °F 84% 30.06 in 10.0 mi NNE 6.9 mph - N/A   Clear
8:56 AM 66.9 °F 57.9 °F 73% 30.07 in 10.0 mi NNE 11.5 mph - N/A   Clear
9:56 AM 68.0 °F 59.0 °F 73% 30.07 in 10.0 mi NNE 8.1 mph - N/A   Clear
10:56 AM 70.9 °F 59.9 °F 68% 30.08 in 10.0 mi North 9.2 mph - N/A   Clear
11:56 AM 72.9 °F 59.9 °F 64% 30.07 in 10.0 mi NNE 8.1 mph - N/A   Clear
12:56 PM 74.8 °F 56.8 °F 53% 30.05 in 10.0 mi NNE 10.4 mph - N/A   Clear
1:56 PM 75.9 °F 56.8 °F 51% 30.03 in 10.0 mi NNE 11.5 mph - N/A   Clear
2:56 PM 75.9 °F 56.8 °F 51% 30.01 in 10.0 mi NNE 12.7 mph - N/A   Clear
3:56 PM 75.9 °F 56.8 °F 51% 30.01 in 10.0 mi NNE 11.5 mph - N/A   Clear
4:56 PM 72.9 °F 57.9 °F 59% 30.00 in 10.0 mi NE 11.5 mph - N/A   Clear
5:56 PM 72.0 °F 56.8 °F 59% 30.00 in 10.0 mi NE 11.5 mph - N/A   Clear
6:56 PM 68.0 °F 59.0 °F 73% 30.00 in 10.0 mi ENE 6.9 mph - N/A   Clear
7:56 PM 63.9 °F 57.9 °F 81% 30.02 in 10.0 mi NE 9.2 mph - N/A   Clear
8:56 PM 63.0 °F 57.9 °F 84% 30.03 in 10.0 mi NE 4.6 mph - N/A   Clear
9:56 PM 61.0 °F 56.8 °F 86% 30.04 in 10.0 mi NE 5.8 mph - N/A   Clear
10:56 PM 59.9 °F 55.9 °F 87% 30.05 in 10.0 mi Calm Calm - N/A   Clear
11:56 PM 59.0 °F 55.9 °F 90% 30.05 in 10.0 mi NNE 3.5 mph - N/A   Clear